Location: Poughquag
(41.6090°N, 73.6820°W)
Time: 02:46:02
(UTC-04:00)

Vanguard 2 Rocket - Pass Details

Date: 04 June 2020
Orbit: 556 x 3324 km, 32.9° (Epoch: 06 July)

Event Time Altitude Azimuth Distance (km) Brightness Sun altitude
Rises 16:07:19 0° 253° (WSW) 3,562 10.7 45.4°
Reaches altitude 10° 16:09:30 10° 247° (WSW) 2,855 10.4 45.0°
Maximum altitude 16:16:18 50° 174° (S) 1,835 9.0 43.7°
Drops below altitude 10° 16:28:15 10° 104° (ESE) 4,892 10.3 41.5°
Sets 16:33:12 0° 101° (E) 6,332 10.8 40.6°
